SCP
-0 -0 -0 -0 -0 -0 -0 -0 -0 -0 -0 -0 0 0 0 -0 -0 0 0 0 0 0 0 0 0 0 0 0 0 0 0 0 0 0 0 0 0 0 0 0 0 0 0 0 0
-0 -0 -0 0 -0 -0 0 0 -0 -0 -0 -0 0 0 0 0 -0 0 0 -0 0 0 0 0 0 0 0 0 -0 -0 0 0 0 0 0 0 0 0 0 0 0 0 0 0 0
-0 0 -0 0 0 -0 0 -0 -0 -0 -0 -0 0 0 0 0 0 0 0 -0 -0 0 0 0 0 0 0 0 0 -0 0 0 0 0 0 0 0 0 0 0 0 0 0 0 0
-0 -0 -0 -0 0 0 0 0 -0 0 -0 -0 -0 0 0 0 0 0 0 -0 -0 0 0 0 0 0 0 0 0 0 0 0 0 0 0 0 0 0 0 0 0 0 0 0 0
-0 -0 -0 -0 0 0 0 0 -0 -0 0 0 0 0 0 0 0 0 0 0 0 0 0 0 0 -0 -0 0 0 0 0 0 0 -0 -0 0 0 -0 0 0 0 0 0 0 0
-0 -0 -0 -0 -0 0 0 -0 -0 0 0 0 0 0 0 0 0 0 0 0 0 0 0 0 0 0 0 0 -0 -0 -0 0 0 0 -0 0 0 -0 -0 0 0 0 0 0 0
-0 -0 -0 -0 -0 -0 0 -0 0 0 0 0 0 0 0 0 0 0 -0 -0 0 0 0 0 0 0 0 0 0 0 0 0 -0 -0 -0 -0 -0 -0 -0 0 -0 0 0 0 0
-0 -0 -0 -0 -0 0 0 -0 0 0 0 0 0 0 0 0 0 0 0 0 0 0 0 0 0 0 0 0 0 0 0 0 0 -0 -0 -0 -0 0 -0 -0 0 0 0 0 0
-0 -0 -0 -0 -0 -0 0 -0 0 0 0 0 0 0 0 0 0 0 0 0 0 0 0 0 0 0 0 0 0 0 0 0 0 -0 -0 -0 -0 -0 -0 -0 -0 0 0 -0 0
-0 -0 -0 -0 -0 -0 0 0 0 0 0 0 0 0 0 0 0 0 0 0 0 0 0 0 0 0 0 0 0 0 0 0 0 0 -0 -0 -0 -0 -0 -0 -0 -0 -0 -0 0
-0 -0 -0 -0 -0 -0 0 0 0 0 0 0 0 0 0 0 0 0 0 0 0 0 0 0 0 0 0 0 0 0 0 0 0 0 0 0 -0 -0 -0 -0 -0 0 0 0 0
-0 -0 -0 -0 -0 0 0 0 0 0 0 0 0 0 0 0 0 0 0 0 0 0 0 0 0 0 0 0 0 0 0 0 0 0 0 0 0 0 -0 -0 -0 -0 -0 -0 -0
0 -0 -0 -0 0 0 0 0 0 0 0 0 0 0 0 0 0 0 0 0 0 0 0 0 0 0 0 0 0 0 0 0 0 0 0 0 0 0 0 0 0 0 0 -0 0
0 0 0 -0 0 0 0 0 0 0 0 0 0 0 0 0 0 0 0 0 0 0 0 0 0 0 0 0 0 0 0 0 0 0 0 0 0 0 0 0 0 0 0 0 0
0 0 0 0 0 0 0 0 0 0 0 0 0 0 0 0 0 0 0 0 0 0 0 0 0 0 0 0 0 0 0 0 0 0 0 0 0 0 0 0 -0 0 0 0 0
0 0 0 0 0 0 0 0 0 0 0 0 0 0 0 0 0 0 0 0 0 0 0 0 0 0 0 0 0 0 0 0 0 0 0 0 0 0 0 0 0 -0 -0 -0 -0
0 0 0 0 0 0 0 0 0 0 0 0 0 0 0 0 0 0 0 0 0 0 0 0 0 0 0 0 0 0 0 0 0 0 0 0 0 0 0 0 0 0 -0 -0 0
0 0 0 0 0 0 0 0 0 0 0 0 0 0 0 0 0 0 0 0 0 0 0 0 0 0 0 0 0 0 0 0 0 0 0 0 0 0 0 0 0 0 0 0 0
0 0 0 0 0 0 0 0 0 0 0 0 0 0 0 0 0 0 0 0 0 0 0 0 0 0 0 0 0 0 0 0 0 0 0 0 0 -0 0 0 0 0 0 0 0
0 0 0 0 0 0 0 0 0 0 0 0 0 0 0 0 0 0 0 0 0 0 0 0 0 0 0 0 0 0 0 0 0 0 0 0 0 0 0 0 0 0 0 0 0
0 0 0 0 0 0 0 0 0 0 0 0 0 0 0 0 0 0 0 0 0 0 0 0 0 0 0 0 0 0 0 0 0 0 0 0 0 0 0 0 0 0 0 0 0
0 0 0 0 0 0 0 0 0 0 0 0 0 0 0 0 0 0 0 0 0 0 0 0 0 0 0 0 0 0 0 0 0 0 0 0 0 0 0 0 0 0 0 0 0
0 0 0 0 0 0 0 0 0 0 0 0 0 0 0 0 0 0 0 0 0 0 0 0 0 0 0 0 0 0 0 0 0 0 0 0 0 0 0 0 0 0 0 0 0
0 0 0 0 0 0 0 0 0 0 0 0 0 0 0 0 0 0 0 0 0 0 0 0 0 0 0 0 0 0 0 0 0 0 0 0 0 0 0 0 0 0 0 0 0
0 0 0 0 0 0 0 0 0 0 0 0 0 0 0 0 0 0 0 0 0 0 0 0 0 0 0 0 0 0 0 0 0 0 0 0 0 0 0 0 0 0 0 0 0
0 0 0 0 0 0 0 0 0 0 0 0 0 0 0 0 0 0 0 0 0 0 0 0 0 0 0 0 0 0 0 0 0 0 0 0 0 0 0 0 0 0 0 0 0
0 0 0 0 0 0 0 0 0 0 0 0 0 0 0 0 0 0 0 0 0 0 0 0 0 0 0 0 0 0 0 0 0 0 0 0 0 0 0 0 0 0 0 0 0
Wind_Speed_500mb
28 30 31 33 37 42 44 39 31 29 32 25 10 4 24 48 74 77 96 59 59 32 22 17 17 7 25 40 32 11 9 9 11 6 6 9 7 14 18 27 32 18 14 8 12
24 24 23 25 26 30 38 42 38 33 35 38 31 16 15 22 55 91 67 54 57 32 13 10 27 25 30 28 23 22 9 11 12 8 6 18 11 7 10 15 25 22 21 12 15
20 20 22 25 30 32 34 33 38 35 35 37 38 20 17 17 31 71 72 58 56 29 12 20 29 45 39 36 29 17 9 5 22 25 19 14 16 10 7 14 16 13 16 21 18
15 16 16 19 19 23 26 22 30 35 33 31 34 39 13 2 12 50 65 57 54 46 29 12 56 37 20 21 33 20 37 20 14 19 9 9 10 18 26 12 8 12 15 15 23
10 12 10 9 15 19 24 23 18 28 35 32 22 17 37 58 31 39 44 57 57 51 68 77 74 30 19 17 42 24 20 34 39 47 46 38 34 15 21 17 15 15 18 18 13
7 7 8 8 11 15 18 18 15 18 19 31 31 21 33 46 29 29 31 32 38 40 59 68 65 63 44 21 18 21 37 21 26 23 23 16 7 5 8 16 14 16 20 21 22
8 2 5 6 9 14 17 20 14 10 9 12 19 13 56 30 20 20 24 43 46 54 63 42 13 6 22 27 35 29 17 18 9 4 4 2 7 6 7 6 10 10 7 13 17
9 4 4 2 6 11 22 22 20 1 9 12 9 15 20 20 20 9 21 24 30 36 42 41 43 56 20 36 9 2 7 7 12 10 4 4 5 8 8 6 6 5 2 3 6
12 10 7 6 2 16 25 17 20 5 6 11 12 6 10 10 12 11 9 17 17 27 30 33 24 25 10 5 6 16 7 8 4 15 6 10 7 12 16 11 10 8 5 7 8
12 11 6 2 5 20 24 9 13 16 5 5 6 8 8 6 9 11 7 9 8 18 10 15 20 10 10 12 3 2 9 6 5 8 8 6 4 7 22 17 18 14 11 10 12
10 8 3 6 12 20 21 11 12 5 22 19 12 16 12 14 12 8 3 10 10 24 13 21 21 14 13 9 10 10 9 7 7 8 5 3 3 13 25 25 30 29 22 20 18
11 9 9 13 16 20 12 6 10 3 8 13 14 15 10 5 4 13 10 7 17 9 9 13 11 7 3 11 15 12 5 8 5 9 4 5 15 18 32 26 37 33 31 28 24
12 13 13 13 13 11 7 8 9 7 4 4 6 5 5 7 9 15 9 10 13 14 15 13 3 6 6 11 11 9 7 4 3 9 3 13 12 10 16 38 39 40 39 37 36
13 13 12 13 7 2 4 8 12 13 9 3 4 5 5 5 8 13 11 6 11 8 8 11 6 3 7 7 5 5 5 2 6 7 3 10 8 11 11 17 28 57 54 54 49
15 15 13 9 6 1 2 7 12 10 9 3 4 2 6 3 8 7 11 8 9 8 3 0 4 6 8 2 5 2 4 5 4 6 7 9 6 14 4 14 28 52 72 68 62
15 14 14 10 8 5 3 4 9 13 12 3 1 4 3 6 5 3 3 11 14 8 13 7 3 3 2 2 2 1 2 8 6 4 6 8 7 12 11 18 10 44 77 78 71
18 17 16 13 8 7 5 2 11 9 5 7 1 3 2 2 3 4 2 2 7 7 2 2 5 3 2 5 6 9 8 8 11 9 9 2 3 24 14 17 17 35 75 82 78
22 20 18 16 10 8 12 10 8 7 12 4 4 4 5 3 2 5 3 6 5 9 7 6 10 10 6 3 5 4 8 8 9 5 9 8 13 14 15 16 42 36 42 72 81
25 24 24 20 14 13 15 7 18 16 9 17 3 5 5 2 4 1 8 9 15 20 16 10 6 2 1 5 6 5 6 7 14 2 6 7 16 23 13 19 22 41 38 55 77
23 21 33 25 22 22 7 14 11 10 17 6 17 12 13 8 7 7 7 7 8 15 2 12 3 0 3 3 6 6 11 6 6 4 10 10 13 14 12 19 18 28 61 63 66
28 11 18 24 28 22 9 17 15 20 21 15 16 11 11 13 15 12 10 5 8 5 5 6 7 1 3 17 19 7 6 4 6 8 10 5 12 17 19 20 25 48 72 75 72
22 7 19 29 13 4 9 14 12 14 28 9 6 14 19 17 16 10 18 14 25 37 18 12 9 9 16 1 3 4 12 13 9 13 7 6 24 11 18 18 28 55 69 71 74
13 13 23 45 8 6 9 8 9 9 13 16 17 16 9 20 4 18 13 7 34 26 17 15 6 4 15 4 5 11 12 8 7 7 16 11 21 8 14 21 41 48 56 64 74
10 2 12 35 8 4 7 8 8 20 12 16 7 11 6 12 6 7 10 4 27 19 4 17 5 16 28 20 12 13 16 29 14 8 9 43 52 34 18 18 33 57 62 61 67
19 8 11 5 13 15 1 5 7 12 20 22 7 14 19 10 7 12 8 1 7 14 9 11 14 7 10 10 6 10 15 35 39 48 27 60 42 59 45 41 65 85 72 73 75
8 5 6 4 9 5 18 8 16 6 11 9 14 13 18 26 26 22 16 12 15 8 14 11 9 5 12 10 18 34 26 22 52 35 54 46 66 29 44 44 61 74 87 92 94
6 4 5 5 6 6 7 12 8 13 13 29 18 5 10 25 53 44 27 16 18 20 21 16 12 8 48 6 18 42 44 56 54 34 37 43 80 20 24 40 71 71 82 97 106
Wind_Direction_500mb
65 65 66 62 63 62 54 45 43 49 35 20 260 246 45 36 30 33 27 352 348 0 13 358 328 260 49 53 51 43 62 54 26 16 119 152 81 51 72 73 63 62 62 67 62
64 67 68 58 63 59 48 46 48 45 34 27 13 255 287 359 17 37 17 10 8 19 13 28 71 86 61 31 37 48 64 44 3 21 106 79 91 81 60 61 62 60 57 73 101
64 69 69 62 70 62 43 43 42 35 31 29 28 24 274 319 31 19 22 21 16 27 32 61 90 74 56 54 20 43 75 153 57 74 85 82 60 61 101 50 51 76 65 77 81
72 79 80 71 56 30 31 32 39 41 40 31 38 57 48 340 69 22 27 31 39 52 62 67 86 73 77 61 52 90 52 54 25 47 65 46 70 60 65 81 74 90 106 98 100
84 81 74 62 43 39 33 34 43 40 42 47 46 55 67 74 57 35 31 47 57 64 72 81 79 72 76 89 72 72 83 76 80 83 77 74 65 84 69 79 78 83 98 103 124
54 72 66 75 52 38 24 18 23 25 29 55 57 53 70 73 59 41 35 49 46 39 64 73 79 85 74 64 54 118 106 97 75 76 75 63 28 76 71 51 43 42 68 96 103
33 106 54 73 57 24 16 359 350 19 40 47 40 15 62 74 50 28 24 40 56 58 60 55 30 87 90 101 122 128 85 105 62 52 146 281 32 30 150 57 337 23 53 68 78
3 319 249 281 5 22 356 354 356 166 16 12 353 28 74 68 54 17 38 43 63 57 58 61 73 75 74 107 113 124 69 51 345 343 75 308 254 224 207 175 318 24 49 92 125
355 341 306 300 13 3 356 6 26 40 26 29 27 68 67 70 47 46 60 56 55 33 29 50 49 67 66 54 58 21 94 42 109 32 334 27 253 220 201 227 294 321 220 172 154
359 354 353 152 336 347 346 320 19 18 298 315 41 79 71 52 51 50 42 353 333 335 41 39 60 67 25 29 23 72 101 63 63 325 52 38 332 236 208 242 261 254 239 227 200
345 347 292 261 310 332 338 321 311 305 54 77 71 92 102 84 63 29 37 12 26 47 35 29 59 44 329 344 78 76 69 72 338 337 26 33 261 235 233 256 258 253 239 228 218
337 321 296 286 305 323 331 341 25 57 57 72 77 84 86 87 85 49 29 31 38 41 344 37 54 322 299 43 61 47 56 10 301 350 355 340 267 229 223 238 242 246 242 235 227
326 329 321 313 327 346 14 34 23 1 13 34 58 76 76 78 60 17 37 70 78 48 23 92 160 357 74 34 43 37 63 345 296 328 30 329 283 218 225 226 234 238 239 239 231
319 320 323 319 320 4 351 4 359 344 60 299 355 1 347 117 58 52 57 74 50 137 94 78 341 66 69 59 357 56 326 35 5 31 290 28 278 274 232 236 218 231 229 230 227
307 314 316 321 309 266 279 320 345 356 6 315 350 315 31 57 133 37 54 73 104 106 124 250 24 20 60 19 330 135 13 44 34 67 44 356 52 271 43 250 235 229 226 224 222
296 296 299 294 275 264 261 307 341 43 264 341 25 350 11 33 26 66 48 86 117 96 52 112 100 63 68 50 41 101 15 34 58 75 23 263 111 275 196 219 239 223 225 222 220
294 295 293 288 275 242 217 336 34 129 334 282 303 38 32 350 26 17 352 122 153 84 279 127 138 117 93 76 5 57 44 337 352 9 226 118 33 248 251 237 225 220 224 223 221
278 281 283 277 256 216 170 52 121 249 226 80 102 92 223 130 324 352 11 280 240 96 101 145 313 165 153 141 197 85 131 153 241 264 272 12 239 249 217 250 245 249 239 228 223
273 275 272 263 241 199 181 84 205 205 148 148 85 165 273 177 124 25 228 235 212 182 161 135 245 118 77 135 140 191 175 142 102 57 28 241 281 289 233 251 246 228 227 226 226
289 272 264 247 222 189 97 234 232 193 135 153 184 161 212 196 158 170 193 208 245 208 322 193 99 129 145 124 44 171 147 72 5 315 295 280 282 244 275 244 223 230 225 225 223
267 263 248 223 201 179 179 222 232 213 181 167 206 175 196 183 190 205 226 254 158 101 34 127 98 265 75 203 177 154 200 80 117 163 198 283 250 217 235 226 212 225 227 226 224
233 231 218 193 167 190 182 199 212 186 206 222 183 201 186 171 200 237 217 223 174 156 171 200 149 182 204 118 26 236 200 162 144 228 235 155 259 246 243 272 244 238 235 234 230
219 237 204 184 179 242 269 260 246 160 196 190 222 202 192 185 241 192 198 228 186 173 162 189 234 351 332 356 19 216 198 176 94 62 197 185 254 190 229 251 246 250 242 240 238
217 244 201 205 257 195 166 244 241 218 237 201 182 135 143 216 240 231 234 202 190 204 215 165 183 181 238 228 134 181 197 197 159 159 187 230 265 244 239 237 250 244 247 244 240
210 214 185 207 254 218 209 128 169 213 219 201 226 215 186 212 185 226 244 208 189 202 177 155 230 204 265 279 240 212 186 193 207 221 206 262 229 250 242 241 238 248 248 246 243
182 197 171 269 310 203 209 228 228 273 162 252 261 221 228 237 218 235 185 183 205 135 165 173 255 115 277 285 266 264 231 226 223 228 242 266 269 249 277 251 250 244 249 250 248
273 345 330 244 148 138 228 213 250 159 264 259 235 236 239 246 259 272 257 241 218 167 183 159 156 113 264 8 329 279 205 218 235 214 220 236 249 280 252 247 249 246 246 248 253
Wind_Speed_850mb
28 30 31 33 37 42 44 39 31 29 32 25 10 4 24 48 74 77 96 59 59 32 22 17 17 7 25 40 32 11 9 9 11 6 6 9 7 14 18 27 32 18 14 8 12
24 24 23 25 26 30 38 42 38 33 35 38 31 16 15 22 55 91 67 54 57 32 13 10 27 25 30 28 23 22 9 11 12 8 6 18 11 7 10 15 25 22 21 12 15
20 20 22 25 30 32 34 33 38 35 35 37 38 20 17 17 31 71 72 58 56 29 12 20 29 45 39 36 29 17 9 5 22 25 19 14 16 10 7 14 16 13 16 21 18
15 16 16 19 19 23 26 22 30 35 33 31 34 39 13 2 12 50 65 57 54 46 29 12 56 37 20 21 33 20 37 20 14 19 9 9 10 18 26 12 8 12 15 15 23
10 12 10 9 15 19 24 23 18 28 35 32 22 17 37 58 31 39 44 57 57 51 68 77 74 30 19 17 42 24 20 34 39 47 46 38 34 15 21 17 15 15 18 18 13
7 7 8 8 11 15 18 18 15 18 19 31 31 21 33 46 29 29 31 32 38 40 59 68 65 63 44 21 18 21 37 21 26 23 23 16 7 5 8 16 14 16 20 21 22
8 2 5 6 9 14 17 20 14 10 9 12 19 13 56 30 20 20 24 43 46 54 63 42 13 6 22 27 35 29 17 18 9 4 4 2 7 6 7 6 10 10 7 13 17
9 4 4 2 6 11 22 22 20 1 9 12 9 15 20 20 20 9 21 24 30 36 42 41 43 56 20 36 9 2 7 7 12 10 4 4 5 8 8 6 6 5 2 3 6
12 10 7 6 2 16 25 17 20 5 6 11 12 6 10 10 12 11 9 17 17 27 30 33 24 25 10 5 6 16 7 8 4 15 6 10 7 12 16 11 10 8 5 7 8
12 11 6 2 5 20 24 9 13 16 5 5 6 8 8 6 9 11 7 9 8 18 10 15 20 10 10 12 3 2 9 6 5 8 8 6 4 7 22 17 18 14 11 10 12
10 8 3 6 12 20 21 11 12 5 22 19 12 16 12 14 12 8 3 10 10 24 13 21 21 14 13 9 10 10 9 7 7 8 5 3 3 13 25 25 30 29 22 20 18
11 9 9 13 16 20 12 6 10 3 8 13 14 15 10 5 4 13 10 7 17 9 9 13 11 7 3 11 15 12 5 8 5 9 4 5 15 18 32 26 37 33 31 28 24
12 13 13 13 13 11 7 8 9 7 4 4 6 5 5 7 9 15 9 10 13 14 15 13 3 6 6 11 11 9 7 4 3 9 3 13 12 10 16 38 39 40 39 37 36
13 13 12 13 7 2 4 8 12 13 9 3 4 5 5 5 8 13 11 6 11 8 8 11 6 3 7 7 5 5 5 2 6 7 3 10 8 11 11 17 28 57 54 54 49
15 15 13 9 6 1 2 7 12 10 9 3 4 2 6 3 8 7 11 8 9 8 3 0 4 6 8 2 5 2 4 5 4 6 7 9 6 14 4 14 28 52 72 68 62
15 14 14 10 8 5 3 4 9 13 12 3 1 4 3 6 5 3 3 11 14 8 13 7 3 3 2 2 2 1 2 8 6 4 6 8 7 12 11 18 10 44 77 78 71
18 17 16 13 8 7 5 2 11 9 5 7 1 3 2 2 3 4 2 2 7 7 2 2 5 3 2 5 6 9 8 8 11 9 9 2 3 24 14 17 17 35 75 82 78
22 20 18 16 10 8 12 10 8 7 12 4 4 4 5 3 2 5 3 6 5 9 7 6 10 10 6 3 5 4 8 8 9 5 9 8 13 14 15 16 42 36 42 72 81
25 24 24 20 14 13 15 7 18 16 9 17 3 5 5 2 4 1 8 9 15 20 16 10 6 2 1 5 6 5 6 7 14 2 6 7 16 23 13 19 22 41 38 55 77
23 21 33 25 22 22 7 14 11 10 17 6 17 12 13 8 7 7 7 7 8 15 2 12 3 0 3 3 6 6 11 6 6 4 10 10 13 14 12 19 18 28 61 63 66
28 11 18 24 28 22 9 17 15 20 21 15 16 11 11 13 15 12 10 5 8 5 5 6 7 1 3 17 19 7 6 4 6 8 10 5 12 17 19 20 25 48 72 75 72
22 7 19 29 13 4 9 14 12 14 28 9 6 14 19 17 16 10 18 14 25 37 18 12 9 9 16 1 3 4 12 13 9 13 7 6 24 11 18 18 28 55 69 71 74
13 13 23 45 8 6 9 8 9 9 13 16 17 16 9 20 4 18 13 7 34 26 17 15 6 4 15 4 5 11 12 8 7 7 16 11 21 8 14 21 41 48 56 64 74
10 2 12 35 8 4 7 8 8 20 12 16 7 11 6 12 6 7 10 4 27 19 4 17 5 16 28 20 12 13 16 29 14 8 9 43 52 34 18 18 33 57 62 61 67
19 8 11 5 13 15 1 5 7 12 20 22 7 14 19 10 7 12 8 1 7 14 9 11 14 7 10 10 6 10 15 35 39 48 27 60 42 59 45 41 65 85 72 73 75
8 5 6 4 9 5 18 8 16 6 11 9 14 13 18 26 26 22 16 12 15 8 14 11 9 5 12 10 18 34 26 22 52 35 54 46 66 29 44 44 61 74 87 92 94
6 4 5 5 6 6 7 12 8 13 13 29 18 5 10 25 53 44 27 16 18 20 21 16 12 8 48 6 18 42 44 56 54 34 37 43 80 20 24 40 71 71 82 97 106
Wind_Direction_850mb
65 65 66 62 63 62 54 45 43 49 35 20 260 246 45 36 30 33 27 352 348 0 13 358 328 260 49 53 51 43 62 54 26 16 119 152 81 51 72 73 63 62 62 67 62
64 67 68 58 63 59 48 46 48 45 34 27 13 255 287 359 17 37 17 10 8 19 13 28 71 86 61 31 37 48 64 44 3 21 106 79 91 81 60 61 62 60 57 73 101
64 69 69 62 70 62 43 43 42 35 31 29 28 24 274 319 31 19 22 21 16 27 32 61 90 74 56 54 20 43 75 153 57 74 85 82 60 61 101 50 51 76 65 77 81
72 79 80 71 56 30 31 32 39 41 40 31 38 57 48 340 69 22 27 31 39 52 62 67 86 73 77 61 52 90 52 54 25 47 65 46 70 60 65 81 74 90 106 98 100
84 81 74 62 43 39 33 34 43 40 42 47 46 55 67 74 57 35 31 47 57 64 72 81 79 72 76 89 72 72 83 76 80 83 77 74 65 84 69 79 78 83 98 103 124
54 72 66 75 52 38 24 18 23 25 29 55 57 53 70 73 59 41 35 49 46 39 64 73 79 85 74 64 54 118 106 97 75 76 75 63 28 76 71 51 43 42 68 96 103
33 106 54 73 57 24 16 359 350 19 40 47 40 15 62 74 50 28 24 40 56 58 60 55 30 87 90 101 122 128 85 105 62 52 146 281 32 30 150 57 337 23 53 68 78
3 319 249 281 5 22 356 354 356 166 16 12 353 28 74 68 54 17 38 43 63 57 58 61 73 75 74 107 113 124 69 51 345 343 75 308 254 224 207 175 318 24 49 92 125
355 341 306 300 13 3 356 6 26 40 26 29 27 68 67 70 47 46 60 56 55 33 29 50 49 67 66 54 58 21 94 42 109 32 334 27 253 220 201 227 294 321 220 172 154
359 354 353 152 336 347 346 320 19 18 298 315 41 79 71 52 51 50 42 353 333 335 41 39 60 67 25 29 23 72 101 63 63 325 52 38 332 236 208 242 261 254 239 227 200
345 347 292 261 310 332 338 321 311 305 54 77 71 92 102 84 63 29 37 12 26 47 35 29 59 44 329 344 78 76 69 72 338 337 26 33 261 235 233 256 258 253 239 228 218
337 321 296 286 305 323 331 341 25 57 57 72 77 84 86 87 85 49 29 31 38 41 344 37 54 322 299 43 61 47 56 10 301 350 355 340 267 229 223 238 242 246 242 235 227
326 329 321 313 327 346 14 34 23 1 13 34 58 76 76 78 60 17 37 70 78 48 23 92 160 357 74 34 43 37 63 345 296 328 30 329 283 218 225 226 234 238 239 239 231
319 320 323 319 320 4 351 4 359 344 60 299 355 1 347 117 58 52 57 74 50 137 94 78 341 66 69 59 357 56 326 35 5 31 290 28 278 274 232 236 218 231 229 230 227
307 314 316 321 309 266 279 320 345 356 6 315 350 315 31 57 133 37 54 73 104 106 124 250 24 20 60 19 330 135 13 44 34 67 44 356 52 271 43 250 235 229 226 224 222
296 296 299 294 275 264 261 307 341 43 264 341 25 350 11 33 26 66 48 86 117 96 52 112 100 63 68 50 41 101 15 34 58 75 23 263 111 275 196 219 239 223 225 222 220
294 295 293 288 275 242 217 336 34 129 334 282 303 38 32 350 26 17 352 122 153 84 279 127 138 117 93 76 5 57 44 337 352 9 226 118 33 248 251 237 225 220 224 223 221
278 281 283 277 256 216 170 52 121 249 226 80 102 92 223 130 324 352 11 280 240 96 101 145 313 165 153 141 197 85 131 153 241 264 272 12 239 249 217 250 245 249 239 228 223
273 275 272 263 241 199 181 84 205 205 148 148 85 165 273 177 124 25 228 235 212 182 161 135 245 118 77 135 140 191 175 142 102 57 28 241 281 289 233 251 246 228 227 226 226
289 272 264 247 222 189 97 234 232 193 135 153 184 161 212 196 158 170 193 208 245 208 322 193 99 129 145 124 44 171 147 72 5 315 295 280 282 244 275 244 223 230 225 225 223
267 263 248 223 201 179 179 222 232 213 181 167 206 175 196 183 190 205 226 254 158 101 34 127 98 265 75 203 177 154 200 80 117 163 198 283 250 217 235 226 212 225 227 226 224
233 231 218 193 167 190 182 199 212 186 206 222 183 201 186 171 200 237 217 223 174 156 171 200 149 182 204 118 26 236 200 162 144 228 235 155 259 246 243 272 244 238 235 234 230
219 237 204 184 179 242 269 260 246 160 196 190 222 202 192 185 241 192 198 228 186 173 162 189 234 351 332 356 19 216 198 176 94 62 197 185 254 190 229 251 246 250 242 240 238
217 244 201 205 257 195 166 244 241 218 237 201 182 135 143 216 240 231 234 202 190 204 215 165 183 181 238 228 134 181 197 197 159 159 187 230 265 244 239 237 250 244 247 244 240
210 214 185 207 254 218 209 128 169 213 219 201 226 215 186 212 185 226 244 208 189 202 177 155 230 204 265 279 240 212 186 193 207 221 206 262 229 250 242 241 238 248 248 246 243
182 197 171 269 310 203 209 228 228 273 162 252 261 221 228 237 218 235 185 183 205 135 165 173 255 115 277 285 266 264 231 226 223 228 242 266 269 249 277 251 250 244 249 250 248
273 345 330 244 148 138 228 213 250 159 264 259 235 236 239 246 259 272 257 241 218 167 183 159 156 113 264 8 329 279 205 218 235 214 220 236 249 280 252 247 249 246 246 248 253